Weather in Pasay

Philippines     14°32′33″N   120°59′45″E
temp.,
°C
wind,
m/s
gust,
m/s
humid.,
%
clouds,
%
prec.,
mm/h
press.,
hPa
HPBL,
m
18 september, sat
sat1823:00+27ese457910 0.0 1010383
02:00+27e458023 0.0 1008367
05:00+26e3480100 0.0 1008280
08:00+28e3674100 0.0 1010575
11:00+31ese466384 0.0 10091102
14:00+32ese5660100 0.1 1007829
17:00+31ese58675 0.1 1007536
20:00+29ese67765 0.1 1009380
19 september, sun
sun1923:00+28ese46795 0.0 1010350
02:00+27e34815 0.0 1009267
05:00+27ene228061 0.0 1010208
08:00+28e237477 0.0 1011487
11:00+31se3561100 0.0 10101097
14:00+30ese7865100 0.1 1008719
17:00+29ese5671100 0.1 1008467
20:00+28e3475100 0.1 1010292
20 september, mon
mon2023:00+27se348287 0.3 1011252
02:00+27e22827 0.8 1009193
05:00+26ne118221 0.2 1009165
08:00+28ne117594 0.7 1011360
11:00+30wsw116583 0.3 1010724
14:00+30n116398 1.8 1008761
17:00+30sse1165100 0.3 1008514
20:00+28se2373100 0.8 1009313
21 september, tue
tue2123:00+27se4681100 2.6 1010361
02:00+26ese238471 3.0 1008175
05:00+26ese238573 1.9 1009188
08:00+27e227781 3.3 1010379
11:00+30ese236421 0.0 1010790
14:00+32se245594 0.1 10061173
17:00+30ese7865100 0.4 1007698
20:00+28ese697295 0.6 1009636
22 september, wed
wed2223:00+27e587417 0.2 1010577
02:00+27e467716 0.2 1008483
05:00+26e357977 0.0 1008414
08:00+28ene267342 0.2 1010601
11:00+30e7106568 1.1 10091235
14:00+30e8106895 1.9 10071144
17:00+27e81181100 4.0 1008784
20:00+26ese71181100 5.9 1010670